Regional Weather Roundup
Issued by NWS

Home | Current Version | Previous Version | Graphics & Text | Print | Product List | Glossary On
Versions: 1 2 3 4 5 6 7 8 9 10 11 12 13 14 15 16 17 18 19 20 21 22 23 24 25 26 27 28 29 30 31 32 33 34 35 36 37 38 39 40 41 42 43 44 45 46 47 48 49 50
000
ASUS43 KFSD 272002
RWRSD

WEATHER ROUNDUP FOR SOUTH DAKOTA
NATIONAL WEATHER SERVICE SIOUX FALLS SD
300 PM CDT SUN JUL 27 2014

NOTE: "FAIR" INDICATES FEW OR NO CLOUDS BELOW 12,000 FEET WITH NO
SIGNIFICANT WEATHER AND/OR OBSTRUCTIONS TO VISIBILITY.


SDZ001>005-009-010-012>017-272100-
NORTHWEST AND NORTH CENTRAL SOUTH DAKOTA

CITY           SKY/WX    TMP DP  RH WIND       PRES   REMARKS
BUFFALO          N/A     76  52  43 VRB5      30.24S
FAITH            N/A     76  53  44 N15G22    30.27S
MOBRIDGE       MOSUNNY   73  55  53 N17       30.21F
$$

SDZ012>016-024>037-041>051-057-063-072>074-272100-
SOUTHWEST AND SOUTH CENTRAL SOUTH DAKOTA

CITY           SKY/WX    TMP DP  RH WIND       PRES   REMARKS
RAPID CTY ARPT SUNNY     80  48  32 N15G23    30.29F
PIERRE         MOSUNNY   77  54  44 NW16G25   30.22R
CUSTER         SUNNY     74  49  41 SE9       30.40S
ELLSWORTH AFB  SUNNY     80  46  30 N20G25    30.28F
PHILIP         MOSUNNY   83  51  33 NW8       30.24S
PINE RIDGE     SUNNY     79  52  38 MISG      30.30F
WINNER         FAIR      83  54  36 N21G28    30.21S
$$

SDZ004>011-016>023-039-040-272100-
NORTHEAST SOUTH DAKOTA

CITY           SKY/WX    TMP DP  RH WIND       PRES   REMARKS
ABERDEEN       CLOUDY    67  54  63 N18       30.19R
WATERTOWN      CLOUDY    64  55  72 NW15      30.16R
SISSETON         N/A     67  57  70 N17       30.13R
$$

SDZ017-020-022-023-036>040-048>070-272100-
SOUTHEAST SOUTH DAKOTA

CITY           SKY/WX    TMP DP  RH WIND       PRES   REMARKS
SIOUX FALLS    PTSUNNY   73  58  59 N17G25    30.13S
HURON          CLOUDY    69  55  60 N20G25    30.18R
CHAMBERLAIN    SUNNY     76  54  45 NW14G25   30.20S
MITCHELL       MOSUNNY   74  60  61 N14G26    30.17S
YANKTON        MOSUNNY   73  57  56 N16G22    30.15S
$$

ABBREVIATIONS USED IN REMARKS
   TC - TEMPERATURE IN CELSIUS
  WCI - WIND CHILL INDEX
   HX - HEAT INDEX
  VSB - VISIBILITY




USA.gov is the U.S. government's official web portal to all federal, state and local government web resources and services.